Location: Chomutov
(50.4500°N, 13.4333°E)
Time: 18:57:53
(UTC+02:00)

FO-29 - Pass Details

Date: 03 October 2021
Orbit: 800 x 1321 km, 98.6° (Epoch: 23 October)

Event Time Altitude Azimuth Distance (km) Brightness Sun altitude
Exits shadow 19:03:55 - 92° (E) 3,792 11.9 -4.7°
Reaches altitude 10° 19:05:46 10° 83° (E) 3,355 11.6 -5.0°
Maximum altitude 19:10:32 18° 45° (NE) 2,784 11.5 -5.7°
Drops below altitude 10° 19:15:15 10° 7° (N) 3,304 12.2 -6.5°
Sets 19:18:53 0° 350° (N) 4,220 13.0 -7.0°
